KB1KVS Weather Reports


Display with metric or nautical units.
time (UTC)temp
F
wind
direction
speed
MPH
gust
MPH
rain 1hr
in
rain 24hr
in
rain mn
in
humidity
%
barometer
mb
20210804202019 69 158 9.0 12.0 0.00 0.00 0.00 91
20210804201019 69 158 9.0 11.0 0.00 0.00 0.00 91
20210804200019 69 158 8.0 10.0 0.00 0.00 0.00 91
20210804195019 69 158 7.0 9.0 0.00 0.00 0.00 91
20210804194019 69 158 7.0 9.0 0.00 0.00 0.00 91
20210804193019 69 158 8.0 9.0 0.00 0.00 0.00 90
20210804192019 70 158 6.0 8.0 0.00 0.00 0.00 90
20210804191019 70 158 7.0 8.0 0.00 0.00 0.00 89
20210804190019 70 158 7.0 8.0 0.00 0.00 0.00 89
20210804185019 70 158 7.0 9.0 0.00 0.00 0.00 89
20210804184019 69 158 7.0 8.0 0.00 0.00 0.00 89
20210804183019 69 158 6.0 8.0 0.00 0.00 0.00 90
20210804182020 69 158 7.0 8.0 0.00 0.00 0.00 89
20210804181019 69 158 7.0 9.0 0.00 0.00 0.00 89
20210804180019 69 158 7.0 8.0 0.00 0.00 0.00 88
20210804175019 69 158 7.0 8.0 0.00 0.00 0.00 89
20210804174019 69 158 7.0 8.0 0.00 0.00 0.00 89
20210804173019 69 158 7.0 8.0 0.00 0.00 0.00 88
20210804172019 69 158 7.0 8.0 0.00 0.00 0.00 88
20210804171019 69 158 5.0 6.0 0.00 0.00 0.00 87
20210804170019 69 158 6.0 7.0 0.00 0.00 0.00 88
20210804165019 68 135 6.0 8.0 0.00 0.00 0.00 88
20210804164019 68 135 7.0 9.0 0.00 0.00 0.00 88
20210804163019 69 158 7.0 8.0 0.00 0.00 0.00 87
20210804162019 69 158 6.0 7.0 0.00 0.00 0.00 86
20210804161019 69 158 6.0 7.0 0.00 0.00 0.00 84
20210804160019 70 158 7.0 8.0 0.00 0.00 0.00 81
20210804155019 70 158 6.0 7.0 0.00 0.00 0.00 83
20210804154019 69 158 6.0 7.0 0.00 0.00 0.00 84
20210804153019 69 158 7.0 8.0 0.00 0.00 0.00 82
20210804152019 69 158 6.0 7.0 0.00 0.00 0.00 81
20210804151019 69 158 5.0 6.0 0.00 0.00 0.00 82
20210804150019 69 158 6.0 7.0 0.00 0.00 0.00 84
20210804145019 69 158 5.0 6.0 0.00 0.00 0.00 84
20210804144019 69 158 5.0 6.0 0.00 0.00 0.00 83
20210804143019 69 158 5.0 6.0 0.00 0.00 0.00 81
20210804142019 69 158 5.0 6.0 0.00 0.00 0.00 83
20210804141019 69 158 5.0 6.0 0.00 0.00 0.00 84
20210804140019 69 158 4.0 6.0 0.00 0.00 0.00 82
20210804135019 70 158 5.0 6.0 0.00 0.00 0.00 81
20210804134019 71 135 3.0 5.0 0.00 0.00 0.00 74
20210804133018 71 113 2.0 4.0 0.00 0.00 0.00 73
20210804132019 72 135 2.0 3.0 0.00 0.00 0.00 74
20210804131018 77 135 2.0 3.0 0.00 0.00 0.00 63
20210804130019 75 248 2.0 3.0 0.00 0.00 0.00 68
20210804125018 74 270 2.0 4.0 0.00 0.00 0.00 72
20210804124018 72 270 2.0 4.0 0.00 0.00 0.00 75
20210804123019 71 315 2.0 4.0 0.00 0.00 0.00 76
20210804122018 71 315 2.0 3.0 0.00 0.00 0.00 76
20210804121019 71 45 1.0 2.0 0.00 0.00 0.00 77
20210804120019 70 68 1.0 2.0 0.00 0.00 0.00 79
20210804115018 68 0 2.0 3.0 0.00 0.00 0.00 80
20210804114018 68 0 2.0 4.0 0.00 0.00 0.00 81
20210804113019 69 0 2.0 3.0 0.00 0.00 0.00 80
20210804112018 69 45 1.0 2.0 0.00 0.00 0.00 83
20210804111019 68 45 1.0 2.0 0.00 0.00 0.00 85
20210804110018 66 45 1.0 2.0 0.00 0.00 0.00 88
20210804105018 65 0 1.0 3.0 0.00 0.00 0.00 88
20210804104018 65 338 3.0 5.0 0.00 0.00 0.00 87
20210804103018 66 338 1.0 2.0 0.00 0.00 0.00 86
20210804102018 66 0 2.0 3.0 0.00 0.00 0.00 85
20210804101019 66 45 1.0 2.0 0.00 0.00 0.00 87
20210804100018 66 338 1.0 2.0 0.00 0.00 0.00 86
20210804095018 65 338 1.0 3.0 0.00 0.00 0.00 88
20210804094019 65 0 2.0 4.0 0.00 0.00 0.00 87
20210804093018 66 338 1.0 3.0 0.00 0.00 0.00 86
20210804092018 66 0 1.0 3.0 0.00 0.00 0.00 87
20210804091018 66 0 2.0 3.0 0.00 0.00 0.00 86
20210804090018 67 0 2.0 4.0 0.00 0.00 0.00 85
20210804085018 67 0 1.0 4.0 0.00 0.00 0.00 85
20210804084018 67 338 1.0 3.0 0.00 0.00 0.00 84
20210804083018 68 45 1.0 2.0 0.00 0.00 0.00 83
20210804082018 68 0.0 2.0 0.00 0.00 0.00 86
20210804081018 66 0 2.0 3.0 0.00 0.00 0.00 87
20210804080021 66 23 1.0 2.0 0.00 0.00 0.00 87
20210804075020 67 23 1.0 2.0 0.00 0.00 0.00 87
20210804074020 67 0.0 2.0 0.00 0.00 0.00 87
20210804073020 67 0 2.0 3.0 0.00 0.00 0.00 86
20210804072020 67 45 1.0 2.0 0.00 0.00 0.00 85
20210804071020 68 45 2.0 2.0 0.00 0.00 0.00 84
20210804070020 68 23 2.0 3.0 0.00 0.00 0.00 82
20210804065021 69 0.0 1.0 0.00 0.00 0.00 82
20210804064020 69 0.0 1.0 0.00 0.00 0.00 81
20210804063020 69 135 1.0 2.0 0.00 0.00 0.00 83
20210804062020 67 0 1.0 2.0 0.00 0.00 0.00 84
20210804061020 67 0 2.0 3.0 0.00 0.00 0.00 84
20210804060020 68 0 1.0 2.0 0.00 0.00 0.00 83
20210804055020 69 45 1.0 2.0 0.00 0.00 0.00 83
20210804054020 68 0 1.0 2.0 0.00 0.00 0.00 83
20210804053020 69 0 2.0 2.0 0.00 0.00 0.00 81
20210804052021 70 45 1.0 2.0 0.00 0.00 0.00 81
20210804051020 69 0.0 1.0 0.00 0.00 0.00 81
20210804050020 70 0.0 1.0 0.00 0.00 0.00 81
20210804045020 70 45 1.0 2.0 0.00 0.00 0.00 80
20210804044020 71 68 1.0 2.0 0.00 0.00 0.00 79
20210804043021 70 68 1.0 2.0 0.00 0.00 0.00 80
20210804042020 70 113 1.0 2.0 0.00 0.00 0.00 80
20210804041020 70 135 1.0 2.0 0.00 0.00 0.00 80
20210804040020 70 90 1.0 2.0 0.00 0.00 0.00 79
20210804035020 70 0.0 1.0 0.00 0.00 0.00 80
20210804034020 70 23 1.0 3.0 0.00 0.00 0.00 79
20210804033019 71 68 1.0 2.0 0.00 0.00 0.00 79
20210804032019 70 135 1.0 2.0 0.00 0.00 0.00 79
20210804031019 70 135 1.0 2.0 0.00 0.00 0.00 80
20210804030020 70 225 1.0 2.0 0.00 0.00 0.00 81
20210804025020 70 225 1.0 3.0 0.00 0.00 0.00 80
20210804024020 70 248 2.0 4.0 0.00 0.00 0.00 80
20210804023019 70 270 3.0 5.0 0.00 0.00 0.00 79
20210804022019 70 225 2.0 5.0 0.00 0.00 0.00 77
20210804021019 70 248 2.0 4.0 0.00 0.00 0.00 75
20210804020020 70 248 4.0 6.0 0.00 0.00 0.00 75
20210804015019 70 248 5.0 7.0 0.00 0.00 0.00 76
20210804014019 70 248 3.0 5.0 0.00 0.00 0.00 76
20210804013019 70 248 4.0 7.0 0.00 0.00 0.00 77
20210804012019 69 248 4.0 6.0 0.00 0.00 0.00 79
20210804011019 69 248 3.0 5.0 0.00 0.00 0.00 82
20210804010019 70 158 1.0 3.0 0.00 0.00 0.00 85
20210804005019 70 113 2.0 3.0 0.00 0.00 0.00 86
20210804004019 70 135 3.0 4.0 0.00 0.00 0.00 86
20210804003019 70 135 1.0 3.0 0.00 0.00 0.00 84
20210804002019 70 113 1.0 2.0 0.00 0.00 0.00 85
20210804001019 70 113 1.0 3.0 0.00 0.00 0.00 86
20210804000019 70 45 1.0 2.0 0.00 0.00 0.00 87
20210803235020 69 113 2.0 4.0 0.00 0.00 0.00 87
20210803234020 69 113 2.0 3.0 0.00 0.00 0.00 88
20210803233020 69 135 3.0 5.0 0.00 0.00 0.00 88
20210803232021 69 135 4.0 5.0 0.00 0.00 0.00 87
20210803231020 69 135 3.0 5.0 0.00 0.00 0.00 87
20210803230020 69 135 3.0 5.0 0.00 0.00 0.00 87
20210803225020 69 135 4.0 6.0 0.00 0.00 0.00 87
20210803224020 69 135 5.0 7.0 0.00 0.00 0.00 86
20210803223020 69 135 3.0 5.0 0.00 0.00 0.00 86
20210803222020 69 158 6.0 7.0 0.00 0.00 0.00 86
20210803221020 69 158 5.0 7.0 0.00 0.00 0.00 87
20210803220019 69 158 5.0 7.0 0.00 0.00 0.00 86
20210803215020 69 158 6.0 7.0 0.00 0.00 0.00 86
20210803214019 69 158 6.0 8.0 0.00 0.00 0.00 85
20210803213019 69 158 6.0 8.0 0.00 0.00 0.00 85
20210803212019 69 158 6.0 8.0 0.00 0.00 0.00 85
20210803211020 69 158 6.0 8.0 0.00 0.00 0.00 85
20210803210020 69 158 6.0 7.0 0.00 0.00 0.00 83
20210803205020 69 135 5.0 7.0 0.00 0.00 0.00 83
20210803204019 69 158 6.0 7.0 0.00 0.00 0.00 83
20210803203019 69 135 6.0 8.0 0.00 0.00 0.00 82